| time (UTC) | temp F | wind direction | speed MPH | gust MPH | rain 1hr in | rain 24hr in | rain mn in | humidity % | barometer mb |
| 20260903201531 | 79 | 181 | 0.0 | 3.0 | 0.00 | 0.00 | 0.00 | 65 | 1002.0 |
| 20260903200030 | 79 | 236 | 0.0 | 3.0 | 0.00 | 0.00 | 0.00 | 65 | 1002.1 |
| 20260903194529 | 79 | 236 | 1.0 | 10.0 | 0.00 | 0.00 | 0.00 | 66 | 1002.2 |
| 20260903193027 | 78 | 261 | 3.0 | 7.0 | 0.00 | 0.00 | 0.00 | 66 | 1002.5 |
| 20260903191528 | 78 | 234 | 0.0 | 7.0 | 0.00 | 0.00 | 0.00 | 66 | 1002.7 |
| 20260903190024 | 79 | 241 | 3.0 | 7.0 | 0.00 | 0.00 | 0.00 | 63 | 1002.9 |
| 20260903184522 | 79 | 146 | 0.0 | 3.0 | 0.00 | 0.00 | 0.00 | 62 | 1003.0 |
| 20260903183020 | 78 | 80 | 1.0 | 5.0 | 0.00 | 0.00 | 0.00 | 62 | 1003.2 |
| 20260903181516 | 77 | 132 | 0.0 | 4.0 | 0.00 | 0.00 | 0.00 | 64 | 1003.4 |
| 20260903180017 | 77 | 67 | 1.0 | 4.0 | 0.00 | 0.00 | 0.00 | 64 | 1003.4 |
| 20260903174512 | 76 | 150 | 0.0 | 5.0 | 0.00 | 0.00 | 0.00 | 66 | 1003.5 |
| 20260903173010 | 76 | 263 | 0.0 | 1.0 | 0.00 | 0.00 | 0.00 | 70 | 1003.6 |
| 20260903171509 | 74 | 113 | 1.0 | 4.0 | 0.00 | 0.00 | 0.00 | 71 | 1003.6 |
| 20260903170003 | 73 | 58 | 0.0 | 2.0 | 0.00 | 0.00 | 0.00 | 74 | 1003.5 |
| 20260903164608 | 72 | 58 | 0.0 | 4.0 | 0.00 | 0.00 | 0.00 | 76 | 1003.5 |
| 20260903163058 | 72 | 108 | 0.0 | 5.0 | 0.00 | 0.00 | 0.00 | 77 | 1003.5 |
| 20260903161555 | 70 | 86 | 0.0 | 1.0 | 0.00 | 0.00 | 0.00 | 80 | 1003.6 |
| 20260903160054 | 70 | 84 | 0.0 | 1.0 | 0.00 | 0.00 | 0.00 | 80 | 1003.6 |
| 20260903154552 | 70 | 80 | 0.0 | 2.0 | 0.00 | 0.00 | 0.00 | 80 | 1003.6 |
| 20260903153058 | 69 | 78 | 0.0 | 3.0 | 0.00 | 0.00 | 0.00 | 81 | 1003.5 |
| 20260903151546 | 68 | 243 | 0.0 | 1.0 | 0.00 | 0.00 | 0.00 | 82 | 1003.4 |
| 20260903150046 | 68 | 244 | 0.0 | 1.0 | 0.00 | 0.00 | 0.00 | 83 | 1003.5 |
| 20260903144544 | 67 | 245 | 0.0 | 0.0 | 0.00 | 0.00 | 0.00 | 84 | 1003.3 |
| 20260903143047 | 67 | 245 | 0.0 | 0.0 | 0.00 | 0.00 | 0.00 | 84 | 1003.2 |
| 20260903141544 | 67 | 245 | 0.0 | 0.0 | 0.00 | 0.00 | 0.00 | 85 | 1003.0 |
| 20260903140046 | 66 | 245 | 0.0 | 0.0 | 0.00 | 0.00 | 0.00 | 85 | 1002.9 |
| 20260903134545 | 66 | 245 | 0.0 | 0.0 | 0.00 | 0.00 | 0.00 | 85 | 1002.8 |
| 20260903133043 | 66 | 245 | 0.0 | 0.0 | 0.00 | 0.00 | 0.00 | 85 | 1002.8 |
| 20260903131540 | 66 | 245 | 0.0 | 0.0 | 0.00 | 0.00 | 0.00 | 85 | 1002.8 |
| 20260903130052 | 66 | 245 | 0.0 | 0.0 | 0.00 | 0.00 | 0.00 | 86 | 1002.9 |
| 20260903124553 | 66 | 245 | 0.0 | 1.0 | 0.00 | 0.00 | 0.00 | 86 | 1002.8 |
| 20260903123045 | 66 | 245 | 0.0 | 0.0 | 0.00 | 0.00 | 0.00 | 86 | 1002.8 |
| 20260903121540 | 65 | 245 | 0.0 | 0.0 | 0.00 | 0.00 | 0.00 | 86 | 1002.8 |
| 20260903120037 | 65 | 245 | 0.0 | 0.0 | 0.00 | 0.00 | 0.00 | 86 | 1002.8 |
| 20260903114537 | 65 | 245 | 0.0 | 0.0 | 0.00 | 0.00 | 0.00 | 86 | 1002.9 |
| 20260903113036 | 65 | 245 | 0.0 | 0.0 | 0.00 | 0.00 | 0.00 | 86 | 1003.0 |
| 20260903111537 | 65 | 245 | 0.0 | 0.0 | 0.00 | 0.00 | 0.00 | 86 | 1002.9 |
| 20260903110041 | 65 | 245 | 0.0 | 0.0 | 0.00 | 0.00 | 0.00 | 86 | 1003.0 |
| 20260903104533 | 65 | 245 | 0.0 | 0.0 | 0.00 | 0.00 | 0.00 | 86 | 1003.0 |
| 20260903103032 | 66 | 245 | 0.0 | 1.0 | 0.00 | 0.00 | 0.00 | 86 | 1003.0 |
| 20260903101530 | 66 | 245 | 0.0 | 1.0 | 0.00 | 0.00 | 0.00 | 86 | 1003.1 |
| 20260903100036 | 66 | 248 | 0.0 | 1.0 | 0.00 | 0.00 | 0.00 | 86 | 1003.2 |
| 20260903094534 | 66 | 248 | 0.0 | 0.0 | 0.00 | 0.00 | 0.00 | 85 | 1003.2 |
| 20260903093031 | 66 | 248 | 0.0 | 0.0 | 0.00 | 0.00 | 0.00 | 85 | 1003.2 |
| 20260903091527 | 65 | 248 | 0.0 | 0.0 | 0.00 | 0.00 | 0.00 | 84 | 1003.4 |
| 20260903090026 | 65 | 248 | 0.0 | 0.0 | 0.00 | 0.00 | 0.00 | 84 | 1003.4 |
| 20260903084525 | 65 | 248 | 0.0 | 0.0 | 0.00 | 0.00 | 0.00 | 83 | 1003.4 |
| 20260903083023 | 66 | 248 | 0.0 | 0.0 | 0.00 | 0.00 | 0.00 | 83 | 1003.6 |
| 20260903081522 | 66 | 248 | 0.0 | 0.0 | 0.00 | 0.00 | 0.00 | 82 | 1003.6 |
| 20260903080020 | 66 | 248 | 0.0 | 0.0 | 0.00 | 0.00 | 0.00 | 82 | 1003.8 |
| 20260903074521 | 66 | 248 | 0.0 | 0.0 | 0.00 | 0.00 | 0.00 | 82 | 1003.7 |
| 20260903073020 | 66 | 248 | 0.0 | 1.0 | 0.00 | 0.00 | 0.00 | 82 | 1003.7 |
| 20260903071516 | 67 | 248 | 0.0 | 0.0 | 0.00 | 0.00 | 0.00 | 81 | 1003.7 |
| 20260903070016 | 67 | 248 | 0.0 | 0.0 | 0.00 | 0.00 | 0.00 | 81 | 1003.7 |
| 20260903064513 | 68 | 248 | 0.0 | 0.0 | 0.00 | 0.00 | 0.00 | 81 | 1003.6 |
| 20260903063020 | 69 | 248 | 0.0 | 0.0 | 0.00 | 0.00 | 0.00 | 80 | 1003.5 |
| 20260903061512 | 68 | 248 | 0.0 | 0.0 | 0.00 | 0.00 | 0.00 | 81 | 1003.6 |
| 20260903060034 | 68 | 249 | 0.0 | 0.0 | 0.00 | 0.00 | 0.00 | 82 | 1003.5 |
| 20260903054510 | 68 | 249 | 0.0 | 0.0 | 0.00 | 0.00 | 0.00 | 82 | 1003.4 |
| 20260903053010 | 68 | 249 | 0.0 | 0.0 | 0.00 | 0.00 | 0.00 | 82 | 1003.4 |
| 20260903051510 | 68 | 249 | 0.0 | 0.0 | 0.00 | 0.00 | 0.00 | 81 | 1003.4 |
| 20260903050009 | 68 | 249 | 0.0 | 0.0 | 0.00 | 0.00 | 0.00 | 80 | 1003.3 |
| 20260903044509 | 68 | 249 | 0.0 | 0.0 | 0.00 | 0.00 | 0.00 | 80 | 1003.3 |
| 20260903043021 | 69 | 250 | 0.0 | 0.0 | 0.00 | 0.00 | 0.00 | 80 | 1003.3 |
| 20260903041507 | 69 | 249 | 0.0 | 0.0 | 0.00 | 0.00 | 0.00 | 79 | 1003.3 |
| 20260903040009 | 70 | 249 | 0.0 | 0.0 | 0.00 | 0.00 | 0.00 | 77 | 1003.2 |
| 20260903034508 | 71 | 249 | 0.0 | 0.0 | 0.00 | 0.00 | 0.00 | 76 | 1003.1 |
| 20260903033012 | 71 | 249 | 0.0 | 0.0 | 0.00 | 0.00 | 0.00 | 75 | 1002.9 |
| 20260903031506 | 72 | 249 | 0.0 | 1.0 | 0.00 | 0.00 | 0.00 | 74 | 1002.8 |
| 20260903030006 | 71 | 249 | 0.0 | 0.0 | 0.00 | 0.00 | 0.00 | 73 | 1002.7 |
| 20260903024505 | 71 | 250 | 0.0 | 1.0 | 0.00 | 0.00 | 0.00 | 71 | 1002.8 |
| 20260903023004 | 72 | 250 | 0.0 | 1.0 | 0.00 | 0.00 | 0.00 | 70 | 1002.9 |
| 20260903021512 | 71 | 249 | 0.0 | 2.0 | 0.00 | 0.00 | 0.00 | 69 | 1002.8 |
| 20260903020004 | 71 | 241 | 0.0 | 5.0 | 0.00 | 0.00 | 0.00 | 69 | 1002.8 |
| 20260903014502 | 72 | 245 | 1.0 | 6.0 | 0.00 | 0.00 | 0.00 | 69 | 1002.9 |
| 20260903013004 | 73 | 237 | 0.0 | 7.0 | 0.00 | 0.00 | 0.00 | 70 | 1002.9 |
| 20260903011502 | 73 | 225 | 0.0 | 8.0 | 0.00 | 0.00 | 0.00 | 70 | 1002.8 |
| 20260903010004 | 73 | 236 | 2.0 | 8.0 | 0.00 | 0.00 | 0.00 | 69 | 1002.9 |
| 20260903004501 | 74 | 260 | 1.0 | 6.0 | 0.00 | 0.00 | 0.00 | 68 | 1002.9 |
| 20260903003000 | 75 | 257 | 2.0 | 8.0 | 0.00 | 0.00 | 0.00 | 69 | 1002.9 |
| 20260903001612 | 75 | 247 | 3.0 | 9.0 | 0.00 | 0.00 | 0.00 | 68 | 1003.0 |
| 20260903000100 | 76 | 227 | 0.0 | 10.0 | 0.00 | 0.00 | 0.00 | 68 | 1003.0 |
| 20260902234621 | 77 | 227 | 0.0 | 10.0 | 0.00 | 0.00 | 0.00 | 66 | 1003.2 |
| 20260902233057 | 77 | 247 | 0.0 | 4.0 | 0.00 | 0.00 | 0.00 | 66 | 1003.2 |
| 20260902231609 | 77 | 275 | 1.0 | 10.0 | 0.00 | 0.00 | 0.00 | 65 | 1003.3 |
| 20260902230107 | 77 | 178 | 1.0 | 7.0 | 0.00 | 0.00 | 0.00 | 64 | 1003.4 |
| 20260902224554 | 77 | 254 | 1.0 | 7.0 | 0.00 | 0.00 | 0.00 | 59 | 1003.4 |
| 20260902223052 | 77 | 246 | 3.0 | 8.0 | 0.00 | 0.00 | 0.00 | 61 | 1003.6 |
| 20260902221551 | 78 | 248 | 4.0 | 9.0 | 0.00 | 0.00 | 0.00 | 63 | 1003.8 |
| 20260902220052 | 79 | 227 | 0.0 | 6.0 | 0.00 | 0.00 | 0.00 | 62 | 1003.8 |
| 20260902214548 | 78 | 178 | 0.0 | 6.0 | 0.00 | 0.00 | 0.00 | 62 | 1004.0 |
| 20260902213046 | 78 | 245 | 2.0 | 7.0 | 0.00 | 0.00 | 0.00 | 61 | 1004.1 |
| 20260902211545 | 78 | 178 | 0.0 | 5.0 | 0.00 | 0.00 | 0.00 | 61 | 1004.1 |
| 20260902210044 | 78 | 214 | 0.0 | 7.0 | 0.00 | 0.00 | 0.00 | 63 | 1004.4 |
| 20260902204543 | 78 | 208 | 1.0 | 5.0 | 0.00 | 0.00 | 0.00 | 63 | 1004.5 |
| 20260902203042 | 78 | 221 | 0.0 | 6.0 | 0.00 | 0.00 | 0.00 | 63 | 1004.5 |